CZ-2D DEB, 44607

Orbit data source: Space-Track

CZ-2D DEB, 44607 is space debris in SSO originally from a launch on Fri, 11 Nov 2016 UTC launched from the Jiuquan Satellite Launch Center, China (JSC). Debris objects in space refer to the collection of defunct objects orbiting the Earth. Examples of debris include non-operational satellites, rocket bodies, and fragments generated from explosions, collisions, or faulty payload assembly.

Loading next visibility...
Identifier
44607, 2016-068G
Orbit
SSO
Country
Flag of CNCN / PRC
Related business
Manufacturer
Unknown
Mission
Spacecraft
Bus & Motor
Unknown
Mass
Unknown
Launch date (UTC)
2016-11-11 (10 years ago)
Launch vehicle
Unknown
Launch site
Jiuquan Satellite Launch Center, China (JSC)
Object type
Payload
Rocket body
Debris
Shape & HBR
Unknown shape, 0.1 m
Radar Cross Section
Small (<0.1 m²)

Expand to show TLE details & history
Last TLE update: 6 days ago

TLE from 6 days ago
0 CZ-2D DEB
1 44607U 16068G   26167.19720528  .00000255  00000-0  17710-3 0  9999
2 44607  98.5186 300.8585 0204106 172.7620 187.6570 13.96886219480691
Epoch: 2026-06-16T04:43Z
TLE epoch observation values (Epoch: 2026-06-16T04:43:58.536Z)
Latitude
-0.00005°
Longitude
-34.60809°
Altitude
1,054.889 km
Speed
7.25 km/s
True Right ascension
20h 03m 26s
True Declination
0° 00' 00"
Sunlit
Object was in full shadow at epoch
Visualization orbit readout
Latitude
Unknown
Longitude
Unknown
Altitude
Unknown
Speed
Unknown
Apparent Right ascension
Unknown
Apparent Declination
Unknown
Sunlit
N/A
Visualization observer readout
Local Sidereal Time
21:37:08
Azimuth
Unknown
Elevation
Unknown
Doppler factor
Unknown
Orbital elements
Apogee altitude
1,050.364 km
Perigee altitude
753.189 km
Semi-major axis
7,279.914 km
Eccentricity
0.02041
Inclination
98.5186°
RAAN
300.8585°
Arg. of periapsis
172.762°
True anomaly
187.35306°
Mean anomaly
187.657°
Eccentric anomaly
187.50427°
Mean motion
3.49425 °/min
Orbital period
103.03 mins
BSTAR
0.0001771
Loading maneuver chart data...
Computing Atmospheric mass density...
Loading historical data...
Loading historical data...
Loading historical data...
Loading historical data...
Loading historical data...
Loading historical data...
Loading historical data...

Documentation

Showing up to 5 results
|